This demonstration page uses our WeatherBlox Daily Observations layout. Learn more.

Left ArrowRight Arrow

Hourly Observations for May 23, 2020

Temp ( °F °C ) Dew Point ( °F °C ) Humidity (%) Winds ( mph kmh ) Pressure ( in mb ) Visibility ( mi km ) Precip ( " mm )
12:53 am 00:53 Clear 60 15.6 58 14.4 93 93 E 3 6 30.00 1016 10 16 0.00 0.00
1:53 am 01:53 Mostly Clear 60 15.6 59 15 96 96 Calm 30.00 1016 10 16 0.00 0.00
2:53 am 02:53 Cloudy 61 16.1 60 15.6 97 97 Calm 29.99 1016 10 16 0.00 0.00
3:53 am 03:53 Mostly Cloudy 60 15.6 60 15.6 100 100 Calm 29.98 1015 10 16 0.00 0.00
4:53 am 04:53 Cloudy 61 16.1 60 15.6 97 97 Calm 29.98 1015 10 16 0.00 0.00
5:53 am 05:53 Cloudy 61 16.1 60 15.6 97 97 Calm 29.99 1016 10 16 0.00 0.00
6:53 am 06:53 Partly Cloudy 61 16.1 60 15.6 97 97 Calm 29.99 1016 10 16 0.00 0.00
7:53 am 07:53 Partly Cloudy 63 17.2 61 16.1 93 93 Calm 30.01 1016 10 16 0.00 0.00
8:53 am 08:53 Sunny 67 19.4 62 16.7 84 84 Calm 30.03 1017 10 16 0.00 0.00
9:53 am 09:53 Sunny 72 22.2 64 17.8 76 76 E 5 7 30.04 1017 10 16 0.00 0.00
10:53 am 10:53 Sunny 75 23.9 65 18.3 71 71 E 3 6 30.04 1017 10 16 0.00 0.00
11:53 am 11:53 Mostly Sunny 78 25.6 65 18.3 64 64 E 5 7 30.03 1017 10 16 0.00 0.00
12:53 pm 12:53 Mostly Cloudy 79 26.1 64 17.8 60 60 undefined N/A 30.02 1017 10 16 0.00 0.00
1:53 pm 13:53 Mostly Cloudy 80 26.7 65 18.3 60 60 ESE 5 7 30.00 1016 10 16 0.00 0.00
2:53 pm 14:53 Cloudy 82 27.8 65 18.3 56 56 Calm 29.98 1015 10 16 0.00 0.00
3:53 pm 15:53 Mostly Cloudy 82 27.8 66 18.9 58 58 S 3 6 29.96 1015 10 16 0.00 0.00
4:53 pm 16:53 Partly Cloudy 82 27.8 67 19.4 60 60 Calm 29.95 1014 10 16 0.00 0.00
5:19 pm 17:19 Mostly Cloudy with Thunderstorms 77 25 67 19.4 71 71 SW 7 11 29.97 1015 2 3 0.06 1.52
5:21 pm 17:21 Mostly Cloudy with Strong Thunderstorms 74 23.3 68 20 82 82 WSW 7 11 29.98 1015 1 1 0.15 3.81
5:34 pm 17:34 Cloudy with Thunderstorms 72 22.2 70 21.1 94 94 Calm 29.97 1015 2 3 0.30 7.62
5:39 pm 17:39 Cloudy 73 22.8 70 21.1 90 90 Calm 29.97 1015 10 16 0.30 7.62
5:53 pm 17:53 Cloudy with Light Rain 71 21.7 68 20 90 90 N 12 19 30.00 1016 10 16 0.30 7.62
6:00 pm 18:00 Cloudy with Light Rain 69 20.6 65 18.3 87 87 NNW 18 30 29.99 1016 2 3 0.08 2.03
6:02 pm 18:02 Cloudy with Heavy Rain 68 20 65 18.3 90 90 NNW 17 28 30.01 1016 2 2 0.12 3.05
6:08 pm 18:08 Cloudy with Heavy Rain 67 19.4 65 18.3 93 93 NW 10 17 30.01 1016 1 1 0.25 6.35
6:12 pm 18:12 Cloudy with Strong Thunderstorms 67 19.4 65 18.3 93 93 NNW 8 13 30.01 1016 1 2 0.27 6.86
6:18 pm 18:18 Cloudy with Strong Thunderstorms 67 19.4 66 18.9 97 97 ENE 7 11 30.01 1016 2 3 0.32 8.13
6:24 pm 18:24 Cloudy with Thunderstorms 67 19.4 66 18.9 97 97 NE 5 7 30.00 1016 3 5 0.33 8.38
6:40 pm 18:40 Mostly Cloudy 68 20 67 19.4 96 96 VRB 3 6 29.99 1015 10 16 0.33 8.38
6:53 pm 18:53 Mostly Sunny 68 20 66 18.9 93 93 E 5 7 29.98 1015 10 16 0.33 8.38
7:53 pm 19:53 Mostly Cloudy 68 20 66 18.9 93 93 Calm 29.98 1015 10 16 0.00 0.00
8:08 pm 20:08 Cloudy with Nearby Thunderstorms 68 20 67 19.4 96 96 Calm 29.99 1015 10 16 0.00 0.00
8:35 pm 20:35 Cloudy with Thunderstorms 68 20 67 19.4 96 96 VRB 3 6 29.97 1015 7 11 0.02 0.51
8:53 pm 20:53 Cloudy with Thunderstorms 70 21.1 65 18.3 84 84 SSE 8 13 29.96 1014 8 13 0.05 1.27
9:17 pm 21:17 Cloudy with Nearby Thunderstorms 71 21.7 66 18.9 84 84 VRB 7 11 29.95 1014 9 14 0.02 0.51
9:25 pm 21:25 Cloudy with Thunderstorms 71 21.7 67 19.4 87 87 SSE 8 13 29.95 1014 9 14 0.03 0.76
9:43 pm 21:43 Cloudy with Light Rain 69 20.6 67 19.4 93 93 VRB 6 9 29.97 1015 6 10 0.05 1.27
9:53 pm 21:53 Cloudy with Light Rain 69 20.6 67 19.4 93 93 VRB 3 6 29.98 1015 7 11 0.07 1.78
10:53 pm 22:53 Partly Cloudy with Light Rain 69 20.6 66 18.9 90 90 W 3 6 29.96 1015 10 16 0.03 0.76
11:53 pm 23:53 Clear 68 20 66 18.9 93 93 WSW 3 6 29.98 1015 10 16 0.00 0.00

Powered by AerisWeather